Fort Loudoun Observed Data For Previous 48 Hours

Caption
Day and Hour Reservoir Elevation (behind dam)* Tailwater Elevation (below dam)* Average Hourly Discharge*
9/20/2018 2 AM EDT 812.92 742.24 27,130
9/20/2018 3 AM EDT 812.94 742.28 27,191
9/20/2018 4 AM EDT 812.93 742.29 27,229
9/20/2018 5 AM EDT 812.92 742.27 27,257
9/20/2018 6 AM EDT 812.94 742.34 27,305
9/20/2018 7 AM EDT 812.92 742.42 27,252
9/20/2018 8 AM EDT 812.91 742.50 27,180
9/20/2018 9 AM EDT 812.91 742.52 27,204
9/20/2018 10 AM EDT 812.90 742.53 27,263
9/20/2018 11 AM EDT 812.96 742.51 27,327
9/20/2018 12 PM EDT 812.95 742.52 27,282
9/20/2018 1 PM EDT 812.98 742.46 27,049
9/20/2018 2 PM EDT 812.99 742.36 26,355
9/20/2018 3 PM EDT 813.00 742.30 26,281
9/20/2018 4 PM EDT 813.02 742.30 26,415
9/20/2018 5 PM EDT 813.04 742.24 26,246
9/20/2018 6 PM EDT 813.05 742.29 26,328
9/20/2018 7 PM EDT 813.07 742.34 27,095
9/20/2018 8 PM EDT 813.09 742.31 27,131
9/20/2018 9 PM EDT 813.10 742.29 27,066
9/20/2018 10 PM EDT 813.12 742.26 27,044
9/20/2018 11 PM EDT 813.14 742.24 27,150
9/21/2018 12 AM EDT 813.16 742.21 27,094
9/21/2018 1 AM EDT 813.18 742.20 27,042
9/21/2018 2 AM EDT 813.14 742.18 27,045
9/21/2018 3 AM EDT 813.15 742.15 27,097
9/21/2018 4 AM EDT 813.14 742.21 27,127
9/21/2018 5 AM EDT 813.12 742.22 27,050
9/21/2018 6 AM EDT 813.13 742.26 27,118
9/21/2018 7 AM EDT 813.11 742.36 27,061
9/21/2018 8 AM EDT 813.10 742.41 27,113
9/21/2018 9 AM EDT 813.09 742.42 27,149
9/21/2018 10 AM EDT 813.13 742.41 27,139
9/21/2018 11 AM EDT 813.11 742.39 27,038
9/21/2018 12 PM EDT 813.11 742.42 27,139
9/21/2018 1 PM EDT 813.10 742.47 27,196
9/21/2018 2 PM EDT 813.08 742.46 27,254
9/21/2018 3 PM EDT 813.08 742.40 27,247
9/21/2018 4 PM EDT 813.07 742.33 27,322
9/21/2018 5 PM EDT 813.07 742.28 27,037
9/21/2018 6 PM EDT 813.06 742.28 27,111
9/21/2018 7 PM EDT 813.06 742.26 27,137
9/21/2018 8 PM EDT 813.08 742.24 27,058
9/21/2018 9 PM EDT 813.09 742.23 27,149
9/21/2018 10 PM EDT 813.10 742.21 27,116
9/21/2018 11 PM EDT 813.12 742.18 27,111
9/22/2018 12 AM EDT 813.14 742.10 26,567
9/22/2018 1 AM EDT 813.16 742.15 26,244
9/22/2018 2 AM EDT 813.12 742.18 26,271
9/22/2018 3 AM EDT 813.13 742.21 26,377
9/22/2018 4 AM EDT 813.12 742.25 26,253
9/22/2018 5 AM EDT 813.11 742.28 26,318

Elevations are in feet above sea level. Discharges are in cubic feet per second and are reported at the end of the hour.